Weather History for Mount Vernon, IL

Change the Weather History Date:

Friday, March 14, 2014

  Actual Average Record
Temperature  
Mean Temperature 52 °F -  
Max Temperature 62 °F 50 °F 82 °F (2012)
Min Temperature 41 °F 31 °F 17 °F (2005)
Degree Days  
Heating Degree Days 14    
Growing Degree Days 2 (Base 50)    
Moisture  
Dew Point 36 °F    
Average Humidity 57    
Maximum Humidity 81    
Minimum Humidity 39    
Precipitation  
Precipitation 0.00 in - - ()
Sea Level Pressure  
Sea Level Pressure 29.92 in    
Wind  
Wind Speed 13 mph (SSW)    
Max Wind Speed 26 mph    
Max Gust Speed 36 mph    
Visibility 10 miles    
Events      
Averages and records for this station are not official NWS values.
T = Trace of Precipitation, MM = Missing Value Source: NWS Daily Summary

Daily Weather History Graph

Daily Weather History Graph

Search for Another Location

Airport:

Trip Planner

Search our weather history database for the weather conditions in past years. The results will help you decide how hot, cold, wet, or windy it might be!

Date:

Astronomy

Mar. 14, 2014 Rise Set
Actual Time 7:08 AM CDT 7:01 PM CDT
Civil Twilight 6:41 AM CDT 7:27 PM CDT
Nautical Twilight 6:11 AM CDT 7:58 PM CDT
Astronomical Twilight 5:40 AM CDT 8:29 PM CDT
Moon 5:24 PM CDT (3/14) 5:46 AM CDT (3/14)
Length of Visible Light 12h 46m
Length of Day
11h 53m
Waxing Gibbous, 96% of the Moon is Illuminated
Mar 14
Waxing Gibbous
Mar 16
Full
Mar 23
Last Quarter
Mar 30
New
Apr 7
First Quarter

Hourly Weather History & Observations

Time (CDT) Temp. Windchill Dew Point Humidity Pressure Visibility Wind Dir Wind Speed Gust Speed Precip Events Conditions
12:15 AM 42.8 °F 38.0 °F 30.2 °F 61% 30.00 in 10.0 mi South 8.1 mph - N/A   Clear
12:35 AM 41.0 °F 35.8 °F 30.2 °F 65% 29.99 in 10.0 mi South 8.1 mph - N/A   Clear
12:55 AM 42.8 °F 37.5 °F 32.0 °F 66% 29.99 in 10.0 mi South 9.2 mph - N/A   Clear
1:15 AM 44.6 °F 38.1 °F 33.8 °F 66% 29.99 in 10.0 mi SSW 13.8 mph - N/A   Clear
1:35 AM 46.4 °F 40.7 °F 33.8 °F 62% 29.99 in 10.0 mi SSW 12.7 mph - N/A   Clear
1:55 AM 44.6 °F 38.4 °F 33.8 °F 66% 29.99 in 10.0 mi SSW 12.7 mph 17.3 mph N/A   Clear
2:15 AM 46.4 °F 40.7 °F 33.8 °F 62% 29.98 in 10.0 mi SSW 12.7 mph - N/A   Clear
2:35 AM 44.6 °F 39.2 °F 33.8 °F 66% 29.98 in 10.0 mi SSW 10.4 mph - N/A   Clear
2:55 AM 44.6 °F 39.2 °F 33.8 °F 66% 29.97 in 10.0 mi SSW 10.4 mph - N/A   Clear
3:15 AM 44.6 °F 38.8 °F 33.8 °F 66% 29.97 in 10.0 mi SSW 11.5 mph - N/A   Clear
3:35 AM 44.6 °F 38.4 °F 33.8 °F 66% 29.96 in 10.0 mi SSW 12.7 mph - N/A   Clear
3:55 AM 44.6 °F 38.4 °F 33.8 °F 66% 29.96 in 10.0 mi SSW 12.7 mph - N/A   Clear
4:15 AM 44.6 °F 38.4 °F 33.8 °F 66% 29.95 in 10.0 mi SSW 12.7 mph - N/A   Clear
4:35 AM 44.6 °F 38.4 °F 33.8 °F 66% 29.95 in 10.0 mi SSW 12.7 mph 18.4 mph N/A   Clear
4:55 AM 44.6 °F 38.1 °F 33.8 °F 66% 29.95 in 10.0 mi SSW 13.8 mph - N/A   Clear
5:15 AM 44.6 °F 38.4 °F 33.8 °F 66% 29.95 in 10.0 mi South 12.7 mph - N/A   Clear
5:35 AM 44.6 °F 39.2 °F 33.8 °F 66% 29.95 in 10.0 mi South 10.4 mph - N/A   Clear
5:55 AM 42.8 °F 37.0 °F 33.8 °F 70% 29.95 in 10.0 mi South 10.4 mph - N/A   Clear
6:15 AM 42.8 °F 36.6 °F 33.8 °F 70% 29.95 in 10.0 mi SSW 11.5 mph - N/A   Clear
6:35 AM 44.6 °F 38.8 °F 33.8 °F 66% 29.95 in 10.0 mi SSW 11.5 mph - N/A   Clear
6:55 AM 44.6 °F 39.7 °F 33.8 °F 66% 29.96 in 10.0 mi South 9.2 mph - N/A   Clear
7:15 AM 44.6 °F 39.2 °F 33.8 °F 66% 29.96 in 10.0 mi South 10.4 mph - N/A   Clear
7:35 AM 44.6 °F 38.8 °F 33.8 °F 66% 29.95 in 10.0 mi South 11.5 mph - N/A   Clear
7:55 AM 44.6 °F 38.4 °F 33.8 °F 66% 29.95 in 10.0 mi South 12.7 mph - N/A   Clear
8:15 AM 46.4 °F 41.1 °F 33.8 °F 62% 29.95 in 10.0 mi SSW 11.5 mph - N/A   Clear
8:35 AM 46.4 °F 40.7 °F 35.6 °F 66% 29.94 in 10.0 mi South 12.7 mph - N/A   Clear
8:55 AM 48.2 °F - 35.6 °F 62% 29.93 in 10.0 mi South 16.1 mph 21.9 mph N/A   Clear
9:15 AM 51.8 °F - 35.6 °F 54% 29.94 in 10.0 mi SSW 18.4 mph 23.0 mph N/A   Clear
9:35 AM 51.8 °F - 35.6 °F 54% 29.93 in 10.0 mi SSW 18.4 mph - N/A   Clear
9:55 AM 51.8 °F - 35.6 °F 54% 29.92 in 10.0 mi SSW 19.6 mph 25.3 mph N/A   Clear
10:15 AM 53.6 °F - 35.6 °F 51% 29.92 in 10.0 mi SSW 19.6 mph 27.6 mph N/A   Clear
10:35 AM 55.4 °F - 37.4 °F 51% 29.91 in 10.0 mi SSW 19.6 mph 26.5 mph N/A   Clear
10:55 AM 57.2 °F - 37.4 °F 48% 29.90 in 10.0 mi SSW 21.9 mph 32.2 mph N/A   Clear
11:15 AM 57.2 °F - 37.4 °F 48% 29.89 in 10.0 mi SSW 25.3 mph 31.1 mph N/A   Clear
11:35 AM 57.2 °F - 35.6 °F 44% 29.89 in 10.0 mi SSW 20.7 mph 28.8 mph N/A   Clear
11:55 AM 57.2 °F - 35.6 °F 44% 29.88 in 10.0 mi SSW 23.0 mph 33.4 mph N/A   Clear
12:15 PM 57.2 °F - 37.4 °F 48% 29.88 in 10.0 mi SSW 20.7 mph 27.6 mph N/A   Clear
12:35 PM 57.2 °F - 37.4 °F 48% 29.88 in 10.0 mi SSW 25.3 mph 29.9 mph N/A   Clear
12:55 PM 57.2 °F - 37.4 °F 48% 29.87 in 10.0 mi SSW 21.9 mph 26.5 mph N/A   Clear
1:15 PM 60.8 °F - 37.4 °F 42% 29.86 in 10.0 mi SSW 21.9 mph 27.6 mph N/A   Clear
1:35 PM 60.8 °F - 37.4 °F 42% 29.85 in 10.0 mi SSW 19.6 mph 29.9 mph N/A   Clear
1:55 PM 59.0 °F - 37.4 °F 45% 29.85 in 10.0 mi SW 23.0 mph 33.4 mph N/A   Clear
2:15 PM 60.8 °F - 37.4 °F 42% 29.84 in 10.0 mi SSW 20.7 mph 28.8 mph N/A   Clear
2:35 PM 60.8 °F - 37.4 °F 42% 29.84 in 10.0 mi SW 23.0 mph 35.7 mph N/A   Clear
2:55 PM 60.8 °F - 37.4 °F 42% 29.85 in 10.0 mi SSW 25.3 mph 28.8 mph N/A   Scattered Clouds
3:15 PM 62.6 °F - 37.4 °F 39% 29.84 in 10.0 mi SSW 26.5 mph 35.7 mph N/A   Mostly Cloudy
3:35 PM 60.8 °F - 37.4 °F 42% 29.84 in 10.0 mi SSW 23.0 mph 29.9 mph N/A   Mostly Cloudy
3:55 PM 60.8 °F - 37.4 °F 42% 29.84 in 10.0 mi SW 25.3 mph 31.1 mph N/A   Scattered Clouds
4:15 PM 62.6 °F - 37.4 °F 39% 29.84 in 10.0 mi SSW 25.3 mph 31.1 mph N/A   Clear
4:35 PM 62.6 °F - 39.2 °F 42% 29.84 in 10.0 mi SSW 24.2 mph 28.8 mph N/A   Clear
4:55 PM 62.6 °F - 39.2 °F 42% 29.84 in 10.0 mi SW 25.3 mph 28.8 mph N/A   Clear
5:15 PM 62.6 °F - 39.2 °F 42% 29.84 in 10.0 mi SSW 18.4 mph - N/A   Clear
5:35 PM 60.8 °F - 39.2 °F 45% 29.84 in 10.0 mi SSW 16.1 mph - N/A   Clear
5:55 PM 62.6 °F - 39.2 °F 42% 29.85 in 10.0 mi SSW 15.0 mph - N/A   Clear
6:15 PM 60.8 °F - 39.2 °F 45% 29.85 in 10.0 mi SW 16.1 mph 21.9 mph N/A   Clear
6:35 PM 60.8 °F - 35.6 °F 39% 29.86 in 10.0 mi SW 15.0 mph - N/A   Clear
6:55 PM 57.2 °F - 39.2 °F 51% 29.88 in 10.0 mi SSW 13.8 mph - N/A   Clear
7:15 PM 55.4 °F - 39.2 °F 54% 29.89 in 10.0 mi SW 15.0 mph - N/A   Clear
7:35 PM 55.4 °F - 39.2 °F 54% 29.90 in 10.0 mi SW 16.1 mph - N/A   Clear
7:55 PM 53.6 °F - 39.2 °F 58% 29.91 in 10.0 mi SW 11.5 mph - N/A   Clear
8:15 PM 53.6 °F - 39.2 °F 58% 29.92 in 10.0 mi SW 11.5 mph - N/A   Clear
8:35 PM 53.6 °F - 39.2 °F 58% 29.92 in 10.0 mi SSW 13.8 mph - N/A   Clear
8:55 PM 53.6 °F - 39.2 °F 58% 29.94 in 10.0 mi West 8.1 mph - N/A   Clear
9:15 PM 53.6 °F - 39.2 °F 58% 29.95 in 10.0 mi WSW 9.2 mph - N/A   Clear
9:35 PM 50.0 °F - 39.2 °F 66% 29.96 in 10.0 mi SW 9.2 mph - N/A   Clear
9:55 PM 46.4 °F 42.9 °F 39.2 °F 76% 29.97 in 10.0 mi SW 6.9 mph - N/A   Clear
10:15 PM 48.2 °F - 39.2 °F 71% 29.97 in 10.0 mi SW 10.4 mph - N/A   Clear
10:35 PM 46.4 °F 45.2 °F 37.4 °F 71% 29.98 in 10.0 mi West 3.5 mph - N/A   Clear
10:55 PM 51.8 °F - 39.2 °F 62% 30.00 in 10.0 mi West 3.5 mph - N/A   Clear
11:15 PM 48.2 °F - 37.4 °F 66% 30.00 in 10.0 mi WSW 4.6 mph - N/A   Clear
11:35 PM 41.0 °F 39.0 °F 35.6 °F 81% 30.01 in 10.0 mi NE 3.5 mph - N/A   Clear
11:55 PM 41.0 °F - 35.6 °F 81% 30.01 in 10.0 mi Calm Calm - N/A   Clear